Regional Weather Roundup
Issued by NWS

Home | Current Version | Previous Version | Text Only | Print | Product List | Glossary On
Versions: 1 2 3 4 5 6 7 8 9 10 11 12 13 14 15 16 17 18 19 20 21 22 23 24 25 26 27 28 29 30 31 32 33 34 35 36 37 38 39 40 41 42 43 44 45 46 47 48 49 50
000
ASUS43 KLSX 181707
RWRMO

WEATHER SUMMARY FOR MISSOURI
NATIONAL WEATHER SERVICE SPRINGFIELD MO
1200 PM CDT FRI APR 18 2014

NOTE: "FAIR" INDICATES FEW OR NO CLOUDS BELOW 12,000 FEET WITH NO
       SIGNIFICANT WEATHER AND/OR OBSTRUCTIONS TO VISIBILITY.
       CURRENT SKY AND/OR WEATHER CONDITIONS ARE NOT AVAILABLE FOR
       CHILLICOTHE AND FARMINGTON.

MOZ001>031-035>038-043-044-053-054-181800-
...NORTHERN AND WESTERN MISSOURI...

CITY           SKY/WX    TMP DP  RH WIND       PRES   REMARKS
KANSAS CTY INT SUNNY     58  36  43 VRB6      30.30F
KANSAS C DTWN  SUNNY     60  39  45 VRB5      30.30F
LEE`S SUMMIT   SUNNY     58  40  51 S7        30.31F
ST JOSEPH      SUNNY     57  36  45 VRB6      30.31F
CHILLICOTHE      N/A     56  38  50 SE6       30.34F
KIRKSVILLE     SUNNY     56  36  47 VRB3      30.34F

$$
MOZ066>068-077>081-088>096-101>105-181800-
...SOUTHWEST MISSOURI...

CITY           SKY/WX    TMP DP  RH WIND       PRES   REMARKS
SPRINGFIELD    SUNNY     66  40  38 VRB5      30.28S
JOPLIN         SUNNY     64  42  44 VRB5      30.29F

$$
MOZ032>034-039>042-045>050-055>058-069>072-181800-
...CENTRAL MISSOURI...

CITY           SKY/WX    TMP DP  RH WIND       PRES   REMARKS
COLUMBIA       SUNNY     61  42  49 CALM      30.32F
JEFFERSON CITY SUNNY     60  41  49 W5        30.32F
ROLLA          SUNNY     62  42  47 CALM      30.29F
SEDALIA        SUNNY     59  44  57 E7        30.33F
WHITEMAN AFB   SUNNY     58  41  53 VRB2      30.31F
OSAGE BEACH    SUNNY     63  39  42 NE8       30.32F

$$
MOZ051-052-059>065-181800-
...EAST CENTRAL MISSOURI...

CITY           SKY/WX    TMP DP  RH WIND       PRES   REMARKS
ST LOUIS INTL  MOSUNNY   64  41  42 VRB3      30.33S
SPIRIT OF STL  SUNNY     61  42  49 CALM      30.32F
ST CHARLES     SUNNY     62  43  49 NE6       30.32F

$$
MOZ072>076-082>087-097>100-106>115-181800-
...SOUTH CENTRAL AND SOUTHEAST MISSOURI...

CITY           SKY/WX    TMP DP  RH WIND       PRES   REMARKS
CAPE GIRARDEAU SUNNY     69  45  41 E5        30.28F
FARMINGTON     SUNNY     64  43  45 N7        30.32S
POPLAR BLUFF   SUNNY     69  43  38 E9G16     30.26F
WEST PLAINS    SUNNY     67  40  37 N3        30.27F

$$



USA.gov is the U.S. government's official web portal to all federal, state and local government web resources and services.